User: anonymous   Login
Location: Stull Observatory
(42.2506°N, 77.7903°W)
Time: 17:09:52
(UTC-04:00)
Language:

Abrixas rocket - Orbit

View from above orbital plane
View from above orbital plane
View from above satellite
View from above satellite

Ground track
Ground track

The orbit data is extracted from the following two-line orbital elements,

1 25723U 99022C   16209.91144031 +.00003796 +00000-0 +76139-4 0  9997
2 25723 048.4185 090.2035 0011915 272.5439 154.9075 15.49117599955853
Epoch (UTC): 27 July 2016 21:52:28
Eccentricity: 0.0011915
inclination: 48.4185°
perigee height: 411 km
apogee height: 427 km
right ascension of ascending node: 90.2035°
argument of perigee: 272.5439°
revolutions per day: 15.49117599
mean anomaly at epoch: 154.9075°
orbit number at epoch: 95585

The dashed part of the orbit path shows where the satellite is in the earth's shadow,  

DLR